Home   Weather   Rheda-Wiedenbrück   Past weeks

Flag for Germany Past Weather in Rheda-Wiedenbrück, North Rhine-Westphalia, Germany — Yesterday and Last 2 Weeks

Now
63 °F

Drizzle. Partly sunny.


Feels Like: 63 °F
Forecast: 55 / 69 °F
Wind: 12 mph from Southwest

Location: Paderborn / Lippstadt

Current Time: Jun 25, 2017 at 10:43:36 am

Latest Report: Jun 25, 2017 at 9:50 am


Visibility: 5 mi

Pressure: 29.86 "Hg

Humidity: 88%

Dew Point: 59 °F

Location of Rheda-WiedenbrückLocation

Past Weather in Rheda-Wiedenbrück — Graph

°F

Rheda-Wiedenbrück Temperature Yesterday

Maximum temperature yesterday: 70 °F (at 12:20 pm)
Minimum temperature yesterday: 57 °F (at 4:50 am)
Average temperature yesterday: 64 °F

High & Low Weather Summary for the Past Weeks

 TemperatureHumidityPressure
High93 °F (Jun 22, 1:50 pm)100% (Jun 18, 1:20 am)30.30 "Hg (Jun 18, 1:20 am)
Low46 °F (Jun 14, 5:20 am)27% (Jun 19, 1:50 pm)29.71 "Hg (Jun 22, 7:20 pm)
Average67 °F62%30.06 "Hg
* Reported Jun 10 9:20 am — Jun 25 9:20 am, Rheda-Wiedenbrück. Weather by CustomWeather, © 2017

Note: Actual official high and low records may vary slightly from our data, if they occured in-between our weather recording intervals... More about our weather records

Advertising

Rheda-Wiedenbrück Weather History for the Previous 24 Hours

Scroll right to see more
 ConditionsComfort  
Time TempWeatherWind HumidityBarometerVisibility
9:20 am
Sun, Jun 25
63 °FBroken clouds.12 mph88%29.86 "HgN/A
8:50 am63 °FPartly sunny.15 mph88%29.86 "HgN/A
8:20 am61 °FBroken clouds.12 mph94%29.86 "HgN/A
7:50 am61 °FDrizzle. Fog.13 mph94%29.86 "Hg3 mi
7:20 am61 °FLight rain. Partly sunny.12 mph94%29.86 "Hg4 mi
6:50 am61 °FLight rain. Partly sunny.10 mph94%29.86 "Hg4 mi
6:20 am61 °FFog.13 mph94%29.86 "Hg3 mi
5:50 am61 °FLight rain. Low clouds.8 mph94%29.86 "HgN/A
5:20 am61 °FRain. Fog.12 mph94%29.86 "Hg3 mi
4:50 am61 °FLight rain. Overcast.13 mph88%29.86 "Hg4 mi
4:20 am61 °FPassing clouds.9 mph88%29.86 "HgN/A
3:20 am61 °FPassing clouds.9 mph88%29.89 "HgN/A
2:50 am61 °FPartly cloudy.5 mph94%29.89 "HgN/A
2:20 am61 °FPassing clouds.6 mph94%29.89 "HgN/A
1:50 am59 °FPassing clouds.7 mph94%29.92 "HgN/A
1:20 am61 °FPassing clouds.5 mph94%29.92 "HgN/A
12:50 am61 °FPassing clouds.5 mph94%29.92 "HgN/A
12:20 am61 °FClear.5 mph94%29.92 "Hg10 mi
11:50 pm
Sat, Jun 24
61 °FPassing clouds.6 mph94%29.95 "HgN/A
11:20 pm61 °FLight rain. Passing clouds.5 mph94%29.95 "Hg4 mi
10:20 pm63 °FPassing clouds.13 mph83%29.95 "Hg3 mi
9:50 pm63 °FPassing clouds.12 mph77%29.95 "HgN/A
9:20 pm63 °FScattered clouds.10 mph83%29.95 "HgN/A
8:50 pm63 °FScattered showers. Broken clouds.8 mph83%29.95 "HgN/A
8:20 pm63 °FScattered showers. Broken clouds.10 mph83%29.98 "HgN/A
7:50 pm64 °FBroken clouds.10 mph73%29.98 "HgN/A
7:20 pm64 °FBroken clouds.12 mph73%29.98 "HgN/A
6:50 pm64 °FBroken clouds.12 mph73%29.95 "HgN/A
6:20 pm64 °FBroken clouds.14 mph73%29.98 "HgN/A
5:50 pm64 °FDrizzle. Broken clouds.12 mph73%29.98 "HgN/A
5:20 pm64 °FDrizzle. Broken clouds.12 mph73%29.98 "HgN/A
4:50 pm68 °FDrizzle. Broken clouds.13 mph56%29.98 "HgN/A
4:20 pm68 °FPartly sunny.12 mph56%29.95 "HgN/A
3:50 pm68 °FPartly sunny.15 mph53%29.95 "HgN/A
3:20 pm70 °FPartly sunny.14 mph53%29.95 "HgN/A
2:50 pm70 °FPartly sunny.14 mph53%29.95 "HgN/A
2:20 pm70 °FPartly sunny.15 mph50%29.98 "HgN/A
1:50 pm70 °FPartly sunny.15 mph50%29.98 "HgN/A
1:20 pm68 °FPartly sunny.14 mph53%29.98 "HgN/A
12:50 pm68 °FPartly sunny.17 mph53%29.95 "HgN/A
12:20 pm70 °FPartly sunny.17 mph46%29.98 "HgN/A
11:50 am68 °FScattered clouds.18 mph53%29.98 "HgN/A
11:20 am66 °FScattered clouds.17 mph56%29.98 "HgN/A
10:50 am66 °FScattered clouds.15 mph56%29.98 "HgN/A
10:20 am64 °FPartly sunny.14 mph60%29.98 "HgN/A
Weather by CustomWeather, © 2017

See weather overviewHow to use our weather pages